DRAGON CRS-20 DEB (45343 NORAD) Tracking and Keplerian Element Data

This shows tracking and keplerian element data for the satellite.

Feedback or suggestion? Click here.




ElementValue
Catalog45343
NameDRAGON CRS-20 DEB
Epoch Orbit102
Epoch Day73.54465776
Epoch Year2020
RAAN99.3064
Inclination51.6198
Eccentricity0.0033218
Argument of Perigee77.0231
Mean Anonmoly284.0224
Mean Motion16.31013381
Decay Rate0.11872546
L11 45343U 20016C 20073.54465776 .11872546 12273-4 18903-2 0 9990
L22 45343 51.6198 99.3064 0033218 77.0231 284.0224 16.31013381 1021

Live tracking and technical data element details for DRAGON CRS-20 DEB (NORAD 45343). DRAGON CRS-20 DEB can be tracked NOW for your location showing map with azimuth and elevation plus other details from your city location.

Track the satellite on the map from your city or location and see movement details for azimuth, elevation, latitude, longitude, range, height, and movement on the map or in text.







IsCatalogInMostPopularTable: catalog: 45343, numindb: 26
Update: records affected: 1



GetName: 45343 DRAGON CRS-20 DEB

Hit Count: updated at: Fri, 03 Jul 2020 16:37:34 GMT